CZ-4C R/B, 43264

Orbit data source: Space-Track

CZ-4C R/B, 43264 is space debris in SSO originally from a launch on Sat, 31 Mar 2018 UTC launched from the Taiyaun Space Center, China (TSC). Debris objects in space refer to the collection of defunct objects orbiting the Earth. Examples of debris include non-operational satellites, rocket bodies, and fragments generated from explosions, collisions, or faulty payload assembly.

Loading next visibility...
Identifier
43264, 2018-031F
Orbit
SSO
Country
Flag of CNCN / PRC
Related business
Manufacturer
SAST
Mission
Spacecraft
Bus & Motor
CZ-4 STAGE 3, Unknown motor
Mass
~1,000 kg wet, ~1,000 kg dry
Launch date (UTC)
2018-03-31 (8 years ago)
Launch vehicle
Unknown
Launch site
Taiyaun Space Center, China (TSC)
Object type
Payload
Rocket body
Debris
Shape & HBR
Cyl, 1.4 m
Radar Cross Section
7.676 m², Large (>1 m²)

Expand to show TLE details & history
Last TLE update: 13 hours ago

TLE from 13 hours ago
0 CZ-4C R/B
1 43264U 18031F   25348.28296593  .00010413  00000-0  43229-3 0  9990
2 43264  98.1352 249.2882 0081455 315.7772  43.6970 15.21015341423123
Epoch: 2025-12-14T06:47Z
TLE epoch observation values (Epoch: 2025-12-14T06:47:28.256Z)
Latitude
0.00001°
Longitude
64.22236°
Altitude
465.535 km
Speed
7.656 km/s
True Right ascension
16h 37m 09s
True Declination
0° 00' 00"
Sunlit
Object was in daylight at epoch
Visualization orbit readout
Latitude
Unknown
Longitude
Unknown
Altitude
Unknown
Speed
Unknown
Apparent Right ascension
Unknown
Apparent Declination
Unknown
Sunlit
N/A
Visualization observer readout
Local Sidereal Time
18:01:19
Azimuth
Unknown
Elevation
Unknown
Doppler factor
Unknown
Orbital elements
Apogee altitude
555.798 km
Perigee altitude
443.75 km
Semi-major axis
6,877.911 km
Eccentricity
0.00815
Inclination
98.1352°
RAAN
249.2882°
Arg. of periapsis
315.7772°
True anomaly
44.3466°
Mean anomaly
43.697°
Eccentric anomaly
44.02132°
Mean motion
3.80503 °/min
Orbital period
94.61 mins
BSTAR
0.00043229
Loading maneuver chart data...
Computing Atmospheric mass density...
Loading historical data...
Loading historical data...
Loading historical data...
Loading historical data...
Loading historical data...
Loading historical data...
Loading historical data...

Documentation

Showing up to 5 results
|